www.pogodaiklimat.ru

Погода и климат >> Архив погоды >> Канада >> Нью-Брансуик >> Сент-Джон


ПОГОДА в Сент-Джоне

  • Прогноз погоды в Сент-Джоне
  • Монитор погоды в Сент-Джоне

АРХИВ ПОГОДЫ в Сент-Джоне

Время (UTC), дата Ветер
(напр.,м/с)
 
Видим.   Явления Облачность Т
(С)
Тd
(С)
f
(%)
Тe
(С)
Тes
(С)
Комфортность P
(гПа)
Po
(гПа)
Тmin
(С)
Tmax
(С)
R
(мм)
R24
(мм)
S
(см)
15 12.01 З 6 24 км 3/3 300 м
[]
-14.6 -21.0 58 -24 -23 1021.7 1007.6
18 12.01 З 7 24 км 9/9 600 м
[Sc]
-13.7 -19.5 62 -24 -24 1021.3 1007.2 -17.4 -13.3
21 12.01 СЗ 6 24 км 4/4 600 м
[]
-13.7 -18.3 68 -23 -23 1023.2 1009.0
00 13.01 СЗ 6 24 км ясно -13.8 -17.9 71 -23 -23 1025.3 1011.1 -17.4 -12.7
03 13.01 СЗ 4 24 км ясно -14.3 -17.9 74 -21 -21 1026.8 1012.6
06 13.01 СЗ 4 24 км ясно -15.3 -18.4 77 -23 -23 1026.8 1012.6 -17.4 -12.7 161
09 13.01 СЗ 5 24 км ясно -15.9 -19.1 76 -25 -25 1027.8 1013.6
12 13.01 С 5 24 км 3/1 300 м
[Sc]
-16.7 -19.5 79 -26 -26 1028.4 1014.2 -16.7 -12.7 16
15 13.01 СЗ 5 24 км 1/0
[]
-12.3 -18.8 58 -20 -19 1029.0 1014.8
18 13.01 СЗ 5 24 км ясно -8.0 -16.0 53 -15 -13 1026.9 1012.8 -16.7 -8.0
21 13.01 СЗ 3 24 км ясно -9.9 -15.8 62 -15 -15 1027.7 1013.6
00 14.01 СЗ 6 24 км 4/1 600 м
[Sc]
-11.7 -15.8 72 -21 -21 1028.8 1014.6 -16.7 -7.5
03 14.01 С 4 24 км ясно -12.7 -16.3 74 -20 -20 1028.6 1014.5
06 14.01 СЗ 2 24 км ясно -15.0 -17.1 84 -20 -20 1028.2 1014.1 -16.7 -7.5 190
09 14.01 С 1 24 км ясно -17.0 -18.5 88 -17 -17 1027.1 1013.0
12 14.01 С 2 24 км 1/1 600 м
[Sc]
-19.9 -21.8 85 -26 -26 1026.3 1012.1 -21.0 -7.5
15 14.01 СВ 3 24 км 1/0
[]
-13.0 -16.2 77 -19 -16 1025.8 1011.7
18 14.01 СЗ 2 24 км 1/0
[Ci fib]
-7.5 -14.8 56 -12 -9 1022.2 1008.2 -21.0 -7.4
21 14.01 СЗ 3 24 км 3/0
[]
-8.6 -15.3 58 -14 -14 1020.3 1006.3
00 15.01 С 1 24 км ясно -14.3 -16.1 86 -15 -15 1019.2 1005.0 -21.0 -6.4
03 15.01 С 3 24 км ясно -13.4 -15.1 87 -19 -19 1016.8 1002.8
06 15.01 СВ 2 24 км ясно -14.2 -16.1 85 -19 -19 1014.2 1000.3 -21.0 -6.4
09 15.01 В 2 24 км ясно -15.6 -17.2 87 -21 -21 1013.4 999.5
12 15.01 С 3 24 км 1/0
[Ci fib]
-15.0 -17.4 82 -22 -22 1013.8 999.8 -17.4 -6.4
15 15.01 С 5 24 км 6/6 1000 м
[]
-8.9 -14.5 64 -16 -15 1014.6 1000.7
18 15.01 С 6 24 км 4/3 600 м
[Sc Ci fib]
-5.1 -10.6 65 -13 -12 1013.4 999.6 -17.4 -5.1
21 15.01 С 3 24 км 4/4 600 м
[]
-6.5 -10.3 74 -12 -12 1015.4 1001.5
00 16.01 штиль 0 24 км 8/8 300 м
[Sc]
-13.7 -15.0 90 -14 -14 1017.2 1003.2 -17.4 -5.1
03 16.01 С 1 24 км 4/4 600 м
[]
-14.5 -15.8 90 -17 -17 1018.1 1004.1
06 16.01 С 1 24 км 1/1 600 м
[]
-18.6 -20.5 85 -19 -19 1017.8 1003.8 -18.6 -5.1 180
09 16.01 С 1 24 км 1/1 600 м
[]
-19.1 -21.2 83 -22 -22 1017.3 1003.3
12 16.01 СЗ 2 24 км 8/8 600 м
[Sc]
-18.6 -20.5 85 -23 -23 1016.7 1002.6 -19.9 -5.1 16
15 16.01 Ю 3 24 км 9/9 300 м
[]
-6.3 -7.0 95 -12 -11 1014.9 1001.0
18 16.01 Ю 8 24 км слаб. снег 10/10 600 м
[Sc]
-0.2 -4.4 73 -7 -7 1010.5 996.7 -19.9 -0.1 16
21 16.01 ЮЗ 8 16 км 10/10 100 м
[]
+0.8 -1.0 88 -6 -6 1008.5 994.8
00 17.01 З 3 16 км слаб. снег {дождь} 9/9 300 м
[Sc]
-0.6 -1.8 92 -6 -6 1008.7 994.9 -19.9 +0.8 2 16
03 17.01 З 5 16 км 8/8 600 м
[]
-1.4 -4.4 80 -8 -8 1010.5 996.9
06 17.01 СЗ 9 24 км {снег} 5/5 600 м
[Sc]
-7.0 -11.4 71 -16 -16 1013.2 999.6 -19.9 +0.8 0.0 201
09 17.01 СЗ 9 24 км 1/1 600 м
[]
-13.2 -17.2 72 -24 -24 1018.2 1004.4
12 17.01 СЗ 10 24 км позёмок 1/1 600 м
[Cu hum]
-16.6 -20.7 70 -29 -29 1021.7 1007.8 -16.6 +0.8 16
15 17.01 СЗ 6 24 км 1/1 600 м
[]
-15.6 -22.4 56 -25 -24 1025.1 1011.1
18 17.01 СЗ 6 24 км 1/1 600 м
[Sc]
-13.8 -22.6 47 -23 -22 1024.5 1010.5 -16.9 -7.0
21 17.01 СЗ 3 24 км 1/1 600 м
[]
-14.7 -23.2 48 -21 -21 1027.0 1012.8
00 18.01 С 1 24 км 4/4 600 м
[Sc]
-20.1 -22.4 82 -21 -21 1029.0 1014.7 -20.8 -13.3
03 18.01 С 1 24 км 3/0
[]
-22.1 -24.2 83 -23 -23 1030.0 1015.6
06 18.01 С 1 24 км 10/0
[Ac As]
-18.3 -20.7 81 -21 -21 1028.9 1014.6 -23.1 -7.0 91
09 18.01 СВ 1 24 км 10/0
[]
-16.4 -20.0 74 -19 -19 1027.6 1013.4
12 18.01 С 1 24 км 9/0 2000 м
[Ac As]
-16.5 -19.0 81 -19 -19 1025.9 1011.6 -23.1 -7.0 15
15 18.01 ЮВ 5 24 км 10/10 300 м
[]
-7.2 -11.1 74 -15 -15 1025.8 1011.6
18 18.01 Ю 5 24 км {дождь} 8/4 600 м
[Sc Ac As]
-4.4 -10.0 65 -11 -11 1021.4 1007.4 -23.1 -4.3 0.0 15
21 18.01 Ю 4 24 км 6/6 1000 м
[]
-3.9 -10.2 62 -10 -10 1018.6 1004.7
00 19.01 Ю 2 24 км 10/10 600 м
[Sc Ac As]
-5.9 -8.6 81 -10 -10 1016.6 1002.7 -18.3 -3.5
03 19.01 Ю 7 16 км 10/10 300 м
[]
-1.1 -3.1 86 -8 -8 1015.5 1001.8
06 19.01 СЗ 7 16 км в посл. час снег 10/10 600 м
[Sc]
-1.4 -4.3 81 -9 -9 1015.8 1002.1 -18.3 -0.1 2 6
09 19.01 СЗ 8 24 км 5/5 1500 м
[]
-8.2 -18.7 43 -17 -17 1019.0 1005.2
12 19.01 С 8 24 км позёмок 6/1 300 м
[Sc Ci fib]
-13.9 -19.2 64 -25 -25 1023.3 1009.3 -13.9 -0.1 16

 

Местоположение метеостанции Сент-Джон (Нью-Брансуик, Канада): широта 45.33 долгота -65.88 высота над уровнем моря 109 м.

В архиве по умолчанию представлена погода в Сент-Джоне за последнюю неделю. Архивные данные за месяц целиком и за предыдущие месяцы, начиная с января 2011 года, Вы можете получить, выбрав интересующий диапазон дат из раскрывающегося списка и нажав кнопку "Ввод!".


*Определитесь, кто Вы:
робот инопланетянин человек

Внимание! Время в таблицах - всемирное. Для получения местного времени необходимо прибавить поправку, которая равна -4 ч.

Смотрите также архив погоды в соседних городах и на ближайших метеорологических станциях:

Погода на Пойнт Лепре (Нью-Брансуик, Канада) (53 км)
Погода в Меканик Сетлемент (Нью-Брансуик, Канада) (69 км)
Погода в Гейджтауне (Нью-Брансуик, Канада) (70 км)
Погода в Фунди Парк (Нью-Брансуик, Канада) (79 км)
Погода во Фредериктоне (Нью-Брансуик, Канада) (79 км)
Погода в Гринвуде (Новая Шотландия, Канада) (85 км)
Погода в Фредериктоне (Нью-Брансуик, Канада) (86 км)
Погода в Аэропорту Гранд-Менен (Нью-Брансуик, Канада) (99 км)
Погода в Кэмпси (Альберта, Канада) (100 км)
Погода в Сейнт Стивен (Нью-Брансуик, Канада) (108 км)

Пояснения к столбцам:

Ветер - указаны скорость ветра в м/с - средняя за 10 мин, порывы в срок и между сроками (в фигурных скобках) и направление, откуда дует ветер: С - северный, СВ - северо-восточный, В - восточный, ЮВ - юго-восточный, Ю - южный, ЮЗ - юго-западный, З - западный, СЗ - северо-западный.
Видимость - горизонтальная дальность видимости в метрах или километрах. При видимости от 1 до 10 км при отсутствии осадков обычно наблюдается дымка, при ухудшении видимости до 1 км и менее - туман. В сухую погоду видимость может ухудшаться дымом, пылью или мглою.
Явления - указаны атмосферные явления, наблюдавшиеся в срок или в последний час перед сроком; фигурными скобками обозначены явления, наблюдавшиеся между сроками (за 1-3 часа до срока); квадратными скобками обозначены град или гололедные отложения с указанием их диаметра в мм.
Облачность - указаны через наклонную черту общая и нижняя облачность в баллах и высота нижней границы облаков в метрах; квадратными скобками обозначены формы облаков: Ci - перистые, Cs - перисто-слоистые, Cc - перисто-кучевые, Ac - высококучевые, As - высокослоистые, Sc - слоисто-кучевые, Ns - слоисто-дождевые, Cu - кучевые, Cb - кучево-дождевые. Подробнее классификацию облаков см. в Атласе облаков (PDF).
T - Температура воздуха - температура, измеренная на высоте 2 м над землей.
Td - Температура точки росы - температура, при понижении до которой содержащийся в воздухе водяной пар достигнет насыщения.
f - Относительная влажность воздуха - влажноcть воздуха, измеренная на высоте 2 м над землей.
Te - Эффективная температура - температура, которую ощущает одетый по сезону человек в тени. Характеристика душности погоды. При расчете учитывается влияние влажности воздуха и скорости ветра на теплоощущения человека.
Tes - Эффективная температура на солнце - температура, которую ощущает человек, с поправкой на солнечный нагрев. Характеристика знойности погоды. Зависит от высоты солнца над горизонтом, облачности и скорости ветра. Ночью, в пасмурную погоду, а также при ветре 12 м/с и более поправка равна нулю.
P - Атмосферное давление - приведенное к уровню моря атмосферное давление.
Po - Атмосферное давление - измеренное на уровне метеостанции атмосферное давление.
Tmin - Минимальная температура - минимум температуры воздуха на высоте 2 м над землей.
Tmax - Максимальная температура - максимум температуры воздуха на высоте 2 м над землей.
R - Количество осадков - Количество выпавших осадков за период времени, мм. При наведении курсора мыши на число - период времени, за который выпало указанное количество осадков.
R24 - Количество осадков - Количество выпавших осадков за 24 часа, мм.
S - Снежный покров - Высота снежного покрова, см. При наведении курсора мыши на число - состояние снежного покрова и степень покрытия местности в баллах.